Tracking 29892 objects as of 21-Nov-2024
HD Live streaming from Space Station
objects crossing your sky now

STARLINK-5423

Track STARLINK-5423 now!
10-day predictions
STARLINK-5423 is classified as:


NORAD ID: 55670
Int'l Code: 2023-021AU
Perigee: 577.4 km
Apogee: 581.0 km
Inclination: 70.0 °
Period: 96.1 minutes
Semi major axis: 6950 km
RCS: Unknown
Launch date: February 17, 2023
Source: United States (US)
Launch site: AIR FORCE WESTERN TEST RANGE (AFWTR)
Your satellite tracking list
Your tracking list is empty




NASA's NSSDC Master Catalog

Two Line Element Set (TLE):
1 55670U 23021AU  24325.87730539  .00001122  00000-0  10179-3 0  9996
2 55670  70.0004 279.0354 0002593 262.5710  97.5154 14.98329381 98015
Source of the keplerian elements: AFSPC